TimePDT,TemperatureF,Dew PointF,Humidity,Sea Level PressureIn,VisibilityMPH,Wind Direction,Wind SpeedMPH,Gust SpeedMPH,PrecipitationIn,Events,Conditions,WindDirDegrees,DateUTC
12:00 AM,55.2,43.0,63,30.02,-9999.0,NNE,1.2,-,N/A,,Unknown,30,2012-10-09 07:00:00
1:00 AM,55.9,44.2,65,30.03,-9999.0,ENE,3.5,-,N/A,,Unknown,70,2012-10-09 08:00:00
2:00 AM,55.4,44.6,67,30.04,-9999.0,NE,2.3,-,N/A,,Unknown,40,2012-10-09 09:00:00
3:00 AM,52.3,43.3,71,30.05,-9999.0,North,1.2,-,N/A,,Unknown,10,2012-10-09 10:00:00
4:00 AM,50.5,43.9,78,30.06,-9999.0,Calm,Calm,-,N/A,,Unknown,0,2012-10-09 11:00:00
5:00 AM,51,44,70,30.07,,NNE,2.3,,,,,30,2012-10-09 12:00:00
5:00 AM,50.5,44.2,79,30.07,-9999.0,NNE,2.3,-,N/A,,Unknown,30,2012-10-09 12:00:00
6:00 AM,51.8,44.2,75,30.08,-9999.0,Calm,Calm,-,N/A,,Unknown,0,2012-10-09 13:00:00
7:00 AM,51.4,44.6,77,30.09,-9999.0,NE,2.3,-,N/A,,Unknown,50,2012-10-09 14:00:00
8:00 AM,50.4,44.4,80,30.10,-9999.0,Calm,Calm,-,N/A,,Unknown,0,2012-10-09 15:00:00
9:00 AM,51.4,46.6,83,30.11,-9999.0,SW,1.2,-,N/A,,Unknown,230,2012-10-09 16:00:00
10:00 AM,52.0,48.0,86,30.12,-9999.0,SSW,1.2,-,N/A,,Unknown,200,2012-10-09 17:00:00
11:00 AM,52,48,82,30.13,,South,1.2,,,,,180,2012-10-09 18:00:00
11:00 AM,51.6,48.2,88,30.13,-9999.0,South,1.2,-,N/A,,Unknown,180,2012-10-09 18:00:00
12:00 PM,53.8,48.0,81,30.12,-9999.0,South,1.2,-,N/A,,Unknown,180,2012-10-09 19:00:00
1:00 PM,55.6,48.4,77,30.11,-9999.0,South,1.2,-,N/A,,Unknown,170,2012-10-09 20:00:00
2:00 PM,57.0,48.9,74,30.10,-9999.0,South,1.2,-,N/A,,Unknown,190,2012-10-09 21:00:00
3:00 PM,59.2,49.1,69,30.08,-9999.0,SSW,1.2,-,N/A,,Unknown,210,2012-10-09 22:00:00
4:00 PM,60.1,48.7,66,30.06,-9999.0,SSE,1.2,-,N/A,,Unknown,160,2012-10-09 23:00:00
5:00 PM,58,48,61,30.05,,SE,1.2,,,,,130,2012-10-10 00:00:00
5:00 PM,57.7,48.0,70,30.05,-9999.0,SE,1.2,-,N/A,,Unknown,130,2012-10-10 00:00:00
6:00 PM,54.3,47.8,79,30.04,-9999.0,Calm,Calm,-,N/A,,Unknown,0,2012-10-10 01:00:00
7:00 PM,51.6,47.5,86,30.04,-9999.0,Calm,Calm,-,N/A,,Unknown,0,2012-10-10 02:00:00
8:00 PM,50.4,47.1,89,30.05,-9999.0,Calm,Calm,-,N/A,,Unknown,0,2012-10-10 03:00:00
9:00 PM,49.1,46.2,90,30.04,-9999.0,NE,1.2,-,N/A,,Unknown,40,2012-10-10 04:00:00
10:00 PM,48.6,45.9,90,30.05,-9999.0,NE,1.2,-,N/A,,Unknown,40,2012-10-10 05:00:00
11:00 PM,49,46,83,30.06,,Calm,Calm,,,,,,2012-10-10 06:00:00
11:00 PM,48.7,45.5,89,30.06,-9999.0,Calm,Calm,-,N/A,,Unknown,0,2012-10-10 06:00:00